NOAA 16 DEB

基本信息
目录编号:
42407
目录名称:
NOAA 16 DEB
国际标识:
2000-055TB
轨道中心:
EARTH
物体状态:
在轨
发射日期:
2000-09-21 UTC
轨道信息
数据来源: 国际轨道数据
星历时间: 2026-09-05T09:46:49+0800
半长轴: 6895.956km
偏心率: 0.0007468
轨道倾角: 98.952°
近地点辐角: 66.679°
升交点赤经: 111.130°
平近点角: 293.522°
近地点: 512.669km
远地点: 522.969km
周期: 94.984分钟
每日圈数: 15.160414
详细信息
发射场:
AFWTR
轨道高度:
LEO
数据来源:
AOE Integration Group
参考系:
TEME
时间系统:
UTC
历元类型:
SGP4
2D轨道图
3D轨道图
轨道高度分析图
轨道倾角分析图
轨道综合分析图
查看轨道综合分析图